Location: Unspecified
(40.9447°N, 78.9903°W)
Time: 19:39:46
(UTC-05:00)

Cosmos 2058 - Visible Passes

Search period start: 14 November 2019 00:00
Search period end: 24 November 2019 00:00
Orbit: 563 x 583 km, 82.5° (Epoch: 13 November)

Date Brightness Start Highest point End Pass type
(mag) Time Alt. Az. Time Alt. Az. Time Alt. Az.
14 Nov 2.8 05:14:44 10° S 05:18:56 79° W 05:23:10 10° N visible
15 Nov 6.2 03:44:44 10° E 03:45:35 11° E 03:46:27 10° ENE visible
15 Nov 2.9 05:17:46 10° SSW 05:21:55 59° W 05:26:05 10° N visible
16 Nov 5.9 03:48:39 14° E 03:48:39 14° E 03:50:39 10° NE visible
16 Nov 3.2 05:25:09 43° WNW 05:25:09 43° WNW 05:28:57 10° N visible
17 Nov 4.9 05:30:50 15° NNW 05:30:50 15° NNW 05:31:45 10° NNW visible
